| time (UTC) | temp C | wind direction | speed KPH | gust KPH | rain 1hr cm | rain 24hr cm | rain mn cm | humidity % | barometer mb |
| 20260508130145 | 10 | 113 | 4.8 | 12.9 | 0.00 | 0.00 | 0.00 | 70 | 1018.4 |
| 20260508124537 | 10 | 63 | 6.4 | 12.9 | 0.00 | 0.00 | 0.00 | 69 | 1018.3 |
| 20260508121532 | 8 | 66 | 4.8 | 17.7 | 0.00 | 0.00 | 0.00 | 71 | 1018.2 |
| 20260508120110 | 7 | 112 | 1.6 | 9.7 | 0.00 | 0.00 | 0.00 | 77 | 1018.1 |
| 20260508114610 | 7 | 136 | 0.0 | 6.4 | 0.00 | 0.00 | 0.00 | 76 | 1018.1 |
| 20260508113033 | 8 | 139 | 1.6 | 6.4 | 0.00 | 0.00 | 0.00 | 75 | 1018.0 |
| 20260508111533 | 8 | 150 | 3.2 | 6.4 | 0.00 | 0.00 | 0.00 | 75 | 1017.9 |
| 20260508104533 | 7 | 128 | 1.6 | 6.4 | 0.00 | 0.00 | 0.00 | 76 | 1017.8 |
| 20260508100036 | 7 | 201 | 1.6 | 6.4 | 0.00 | 0.00 | 0.00 | 73 | 1017.8 |
| 20260508094537 | 8 | 151 | 3.2 | 6.4 | 0.00 | 0.00 | 0.00 | 71 | 1017.7 |
| 20260508091535 | 7 | 162 | 3.2 | 6.4 | 0.00 | 0.00 | 0.00 | 73 | 1017.6 |
| 20260508090032 | 8 | 177 | 1.6 | 8.0 | 0.00 | 0.00 | 0.00 | 70 | 1017.7 |
| 20260508084534 | 8 | 174 | 3.2 | 8.0 | 0.00 | 0.00 | 0.00 | 67 | 1017.7 |
| 20260508083035 | 9 | 164 | 3.2 | 4.8 | 0.00 | 0.00 | 0.00 | 63 | 1017.7 |
| 20260508081530 | 10 | 168 | 3.2 | 6.4 | 0.00 | 0.00 | 0.00 | 59 | 1017.7 |
| 20260508080110 | 11 | 104 | 1.6 | 8.0 | 0.00 | 0.00 | 0.00 | 56 | 1017.7 |
| 20260508074535 | 13 | 203 | 1.6 | 6.4 | 0.00 | 0.00 | 0.00 | 47 | 1017.8 |
| 20260508071608 | 14 | 232 | 4.8 | 12.9 | 0.00 | 0.00 | 0.00 | 45 | 1017.8 |
| 20260508070035 | 14 | 233 | 6.4 | 12.9 | 0.00 | 0.00 | 0.00 | 44 | 1017.8 |
| 20260508064535 | 15 | 223 | 9.7 | 20.9 | 0.00 | 0.00 | 0.00 | 43 | 1017.8 |
| 20260508061610 | 15 | 220 | 14.5 | 25.7 | 0.00 | 0.00 | 0.00 | 42 | 1017.7 |
| 20260508060030 | 15 | 217 | 16.1 | 32.2 | 0.00 | 0.00 | 0.00 | 40 | 1017.8 |
| 20260508054536 | 15 | 218 | 16.1 | 29.0 | 0.00 | 0.00 | 0.00 | 38 | 1017.8 |
| 20260508053035 | 15 | 222 | 12.9 | 22.5 | 0.00 | 0.00 | 0.00 | 36 | 1018.0 |
| 20260508050044 | 15 | 225 | 14.5 | 25.7 | 0.00 | 0.00 | 0.00 | 35 | 1017.9 |
| 20260508044534 | 15 | 217 | 14.5 | 25.7 | 0.00 | 0.00 | 0.00 | 34 | 1017.8 |
| 20260508043033 | 16 | 220 | 12.9 | 25.7 | 0.00 | 0.00 | 0.00 | 33 | 1017.7 |
| 20260508041533 | 16 | 221 | 14.5 | 30.6 | 0.00 | 0.00 | 0.00 | 32 | 1017.6 |
| 20260508040031 | 16 | 220 | 14.5 | 30.6 | 0.00 | 0.00 | 0.00 | 31 | 1017.5 |
| 20260508034535 | 16 | 214 | 14.5 | 29.0 | 0.00 | 0.00 | 0.00 | 30 | 1017.4 |
| 20260508033036 | 16 | 215 | 14.5 | 27.4 | 0.00 | 0.00 | 0.00 | 29 | 1017.2 |
| 20260508031533 | 17 | 215 | 14.5 | 33.8 | 0.00 | 0.00 | 0.00 | 27 | 1017.2 |
| 20260508030037 | 18 | 212 | 11.3 | 20.9 | 0.00 | 0.00 | 0.00 | 29 | 1017.1 |
| 20260508023034 | 19 | 102 | 3.2 | 11.3 | 0.00 | 0.00 | 0.00 | 27 | 1017.0 |
| 20260508020034 | 20 | 326 | 3.2 | 6.4 | 0.00 | 0.00 | 0.00 | 25 | 1016.9 |
| 20260508014534 | 21 | 255 | 4.8 | 12.9 | 0.00 | 0.00 | 0.00 | 24 | 1016.9 |
| 20260508013034 | 21 | 306 | 3.2 | 12.9 | 0.00 | 0.00 | 0.00 | 22 | 1016.9 |
| 20260508011610 | 21 | 302 | 4.8 | 12.9 | 0.00 | 0.00 | 0.00 | 22 | 1017.0 |
| 20260508010036 | 22 | 356 | 1.6 | 9.7 | 0.00 | 0.00 | 0.00 | 23 | 1017.0 |
| 20260508004528 | 21 | 318 | 4.8 | 17.7 | 0.00 | 0.00 | 0.00 | 24 | 1016.9 |
| 20260508003034 | 21 | 340 | 8.0 | 19.3 | 0.00 | 0.00 | 0.00 | 23 | 1016.9 |
| 20260508001644 | 22 | 306 | 9.7 | 20.9 | 0.00 | 0.00 | 0.00 | 23 | 1016.8 |
| 20260507234542 | 22 | 340 | 8.0 | 17.7 | 0.00 | 0.00 | 0.00 | 29 | 1016.8 |
| 20260507234536 | 21 | 1 | 8.0 | 17.7 | 0.00 | 0.00 | 0.00 | 30 | 1016.9 |
| 20260507231533 | 20 | 333 | 8.0 | 19.3 | 0.00 | 0.00 | 0.00 | 30 | 1017.2 |
| 20260507230030 | 21 | 343 | 8.0 | 16.1 | 0.00 | 0.00 | 0.00 | 32 | 1017.2 |
| 20260507224530 | 21 | 340 | 8.0 | 14.5 | 0.00 | 0.00 | 0.00 | 32 | 1017.3 |
| 20260507223032 | 21 | 337 | 8.0 | 17.7 | 0.00 | 0.00 | 0.00 | 32 | 1017.4 |
| 20260507221620 | 21 | 337 | 8.0 | 17.7 | 0.00 | 0.00 | 0.00 | 33 | 1017.5 |
| 20260507220143 | 21 | 12 | 8.0 | 17.7 | 0.00 | 0.00 | 0.00 | 39 | 1017.7 |
| 20260507210032 | 20 | 41 | 6.4 | 16.1 | 0.00 | 0.00 | 0.00 | 41 | 1018.1 |
| 20260507204536 | 20 | 38 | 8.0 | 16.1 | 0.00 | 0.00 | 0.00 | 41 | 1018.2 |
| 20260507203037 | 20 | 40 | 4.8 | 16.1 | 0.00 | 0.00 | 0.00 | 40 | 1018.4 |
| 20260507200037 | 20 | 13 | 8.0 | 17.7 | 0.00 | 0.00 | 0.00 | 42 | 1018.6 |
| 20260507194535 | 19 | 318 | 4.8 | 11.3 | 0.00 | 0.00 | 0.00 | 42 | 1018.6 |
| 20260507193037 | 19 | 348 | 4.8 | 16.1 | 0.00 | 0.00 | 0.00 | 43 | 1018.8 |
| 20260507191612 | 18 | 333 | 6.4 | 14.5 | 0.00 | 0.00 | 0.00 | 46 | 1018.9 |
| 20260507184537 | 17 | 24 | 9.7 | 22.5 | 0.00 | 0.00 | 0.00 | 52 | 1019.3 |
| 20260507181537 | 17 | 23 | 11.3 | 24.1 | 0.00 | 0.00 | 0.00 | 52 | 1019.4 |
| 20260507180110 | 17 | 37 | 6.4 | 14.5 | 0.00 | 0.00 | 0.00 | 54 | 1019.6 |
| 20260507174537 | 16 | 45 | 8.0 | 16.1 | 0.00 | 0.00 | 0.00 | 55 | 1019.8 |
| 20260507173035 | 16 | 43 | 8.0 | 16.1 | 0.00 | 0.00 | 0.00 | 57 | 1020.0 |
| 20260507171538 | 15 | 45 | 8.0 | 17.7 | 0.00 | 0.00 | 0.00 | 58 | 1020.1 |
| 20260507170031 | 15 | 24 | 6.4 | 12.9 | 0.00 | 0.00 | 0.00 | 60 | 1020.0 |
| 20260507163037 | 15 | 44 | 6.4 | 17.7 | 0.00 | 0.00 | 0.00 | 61 | 1020.2 |
| 20260507160111 | 14 | 22 | 6.4 | 12.9 | 0.00 | 0.00 | 0.00 | 63 | 1020.3 |
| 20260507154609 | 14 | 27 | 4.8 | 12.9 | 0.00 | 0.00 | 0.00 | 65 | 1020.4 |
| 20260507153036 | 13 | 50 | 4.8 | 9.7 | 0.00 | 0.00 | 0.00 | 68 | 1020.4 |
| 20260507151537 | 13 | 89 | 3.2 | 9.7 | 0.00 | 0.00 | 0.00 | 69 | 1020.5 |
| 20260507150051 | 12 | 102 | 1.6 | 11.3 | 0.00 | 0.00 | 0.00 | 73 | 1020.5 |
| 20260507144537 | 10 | 52 | 1.6 | 8.0 | 0.00 | 0.00 | 0.00 | 79 | 1020.5 |
| 20260507141534 | 9 | 58 | 6.4 | 14.5 | 0.00 | 0.00 | 0.00 | 83 | 1020.4 |
| 20260507140111 | 9 | 48 | 6.4 | 17.7 | 0.00 | 0.00 | 0.00 | 83 | 1020.1 |
| 20260507134538 | 9 | 51 | 4.8 | 16.1 | 0.00 | 0.00 | 0.00 | 80 | 1020.0 |
| 20260507133033 | 11 | 353 | 4.8 | 12.9 | 0.00 | 0.00 | 0.00 | 73 | 1019.9 |
| 20260507131536 | 11 | 241 | 9.7 | 24.1 | 0.00 | 0.00 | 0.00 | 72 | 1019.8 |